User: anonymous   Login
Location: Pilipovskiye Korichintsy
(49.1833°N, 27.4667°E)
Time: 09:50:29
(UTC+00:00)
Language:

SL-08 R/B - Orbit

View from above orbital plane
View from above orbital plane
View from above satellite
View from above satellite

Ground track
Ground track

The orbit data is extracted from the following two-line orbital elements,

1 27561U 02054C   20271.86172632 +.00000082 +00000-0 +29354-4 0  9996
2 27561 098.4283 059.6292 0047301 077.5208 283.1275 14.55829963946597
Epoch (UTC): 27 September 2020 20:40:53
Eccentricity: 0.0047301
inclination: 98.4283°
perigee height: 673 km
apogee height: 740 km
right ascension of ascending node: 59.6292°
argument of perigee: 77.5208°
revolutions per day: 14.55829963
mean anomaly at epoch: 283.1275°
orbit number at epoch: 94659

The dashed part of the orbit path shows where the satellite is in the earth's shadow,  

DLR